EST,Max TemperatureF,Mean TemperatureF,Min TemperatureF,Max Dew PointF,MeanDew PointF,Min DewpointF,Max Humidity, Mean Humidity, Min Humidity, Max Sea Level PressureIn, Mean Sea Level PressureIn, Min Sea Level PressureIn, Max VisibilityMiles, Mean VisibilityMiles, Min VisibilityMiles, Max Wind SpeedMPH, Mean Wind SpeedMPH, Max Gust SpeedMPH,PrecipitationIn, CloudCover, Events, WindDirDegrees
2012-12-1,33,29,26,30,23,12,93,77,51,30.55,30.50,30.46,10,5,0,10,7,16,0.00,8,Fog,69
2012-12-2,48,40,33,45,40,30,93,89,71,30.44,30.24,30.11,8,3,0,9,4,,0.06,6,Fog,225
2012-12-3,55,45,35,45,40,30,100,86,58,30.30,30.19,30.09,10,5,0,9,4,,0.00,4,Fog,325
2012-12-4,53,43,33,52,42,30,100,92,81,30.31,30.22,30.00,10,4,0,13,4,17,0.00,6,Fog-Rain,169
2012-12-5,51,50,48,50,46,32,94,84,50,30.22,30.03,29.92,10,8,4,22,9,29,0.00,6,Rain,308
2012-12-6,,,,,,,,,,30.34,30.27,30.21,10,10,10,17,9,23,0.00,0,,342
2012-12-7,41,39,37,41,39,37,100,98,93,30.28,30.18,30.04,10,7,1,7,1,,0.01,4,Rain,216
2012-12-8,46,42,39,43,26,-6,100,72,12,30.03,29.96,29.88,4,2,0,7,2,,0.06,8,Fog-Rain,243
2012-12-9,44,40,35,-6,-7,-9,12,12,12,30.27,30.15,30.01,10,7,0,15,6,16,0.09,6,Fog-Rain,35
2012-12-10,55,46,37,,,,,,,30.07,29.77,29.57,10,4,0,9,6,,0.06,8,Fog-Rain,201
2012-12-11,46,42,39,,,,,,,30.19,29.89,29.62,10,10,10,18,11,21,0.00,6,,347
2012-12-12,39,34,28,21,21,19,74,64,49,30.43,30.32,30.19,10,10,10,8,3,,0.00,0,,331
2012-12-13,41,32,24,41,20,16,100,68,45,30.47,30.39,30.31,10,10,10,8,3,,0.00,0,,341
2012-12-14,44,35,26,25,20,18,74,62,39,30.29,30.22,30.12,10,10,10,9,2,,0.00,0,,279
2012-12-15,42,34,26,27,23,19,86,67,53,30.31,30.25,30.21,10,10,10,8,2,,0.00,0,,46
2012-12-16,35,34,33,30,27,25,87,78,70,30.24,30.09,29.97,10,5,1,14,8,20,0.00,8,Rain-Snow,78
2012-12-17,37,34,33,32,30,28,87,83,81,29.95,29.83,29.69,10,2,1,14,11,24,0.05,8,Rain,67
2012-12-18,46,42,37,43,38,34,93,86,76,29.67,29.53,29.42,10,6,0,16,9,23,0.15,8,Fog-Rain,20
2012-12-19,48,42,35,34,26,21,81,59,43,30.06,29.77,29.55,10,10,10,24,10,32,0.00,4,,331
2012-12-20,39,34,28,34,28,19,81,71,56,30.20,30.08,29.90,10,10,9,13,6,22,0.03,4,,112
2012-12-21,53,44,35,52,35,25,94,77,65,29.91,29.43,29.07,10,9,2,26,13,48,0.08,8,Rain,179
2012-12-22,35,32,30,28,21,14,81,62,48,29.73,29.46,29.28,10,9,2,20,10,34,0.00,6,Snow,280
2012-12-23,37,34,30,21,18,16,64,53,48,29.91,29.84,29.73,10,10,10,12,8,25,0.00,4,,272
2012-12-24,37,30,24,27,18,14,86,60,48,30.07,29.99,29.92,10,9,1,9,2,,0.00,2,,8
2012-12-25,37,32,23,28,23,16,86,75,64,30.23,30.06,29.92,10,8,2,18,6,25,0.00,5,Rain,16
2012-12-26,33,26,19,27,18,10,86,71,51,30.27,30.06,29.60,10,7,0,26,8,38,0.00,4,Snow,52
2012-12-27,35,32,26,30,25,18,81,73,60,29.74,29.48,29.29,10,6,2,29,19,41,0.34,7,Rain,14
2012-12-28,33,27,21,19,16,12,80,62,55,30.05,29.92,29.74,10,10,10,21,10,28,0.00,3,,332
2012-12-29,28,24,19,25,20,12,86,75,69,30.03,29.76,29.47,10,7,1,12,5,21,0.00,6,Snow,21
2012-12-30,30,26,23,19,12,5,74,57,40,30.07,29.80,29.52,10,10,9,18,12,31,0.00,1,,316
2012-12-31,33,25,17,19,13,5,68,55,46,30.11,29.99,29.83,10,10,10,13,8,23,0.00,3,,263